Buffalo, MN

9:18 PM CST on December 11, 2019 (GMT -0600)
Buffalo

Weather History for KCFE - October, 2019

Change the Weather History Date:

Saturday, October 26, 2019

  Actual Average (WUND) Record (WUND)
Temperature  
Mean Temperature 46 °F -  
Max Temperature 55 °F - - (-1)
Min Temperature 36 °F - - (-1)
Degree Days  
Heating Degree Days 19    
Moisture  
Dew Point 28 °F    
Average Humidity 50    
Maximum Humidity 68    
Minimum Humidity 33    
Precipitation  
Precipitation 0.00 in - - ()
Sea Level Pressure  
Sea Level Pressure 29.80 in    
Wind  
Wind Speed - (North)    
Max Wind Speed -    
Max Gust Speed -    
Visibility 10 miles    
Events      
Averages and records for this station are not official NWS values.
T = Trace of Precipitation, MM = Missing Value Source: NWS Daily Summary

Daily Weather History Graph

Daily Weather History Graph

Search for Another Location

Airport or City:

Astronomy

Oct. 26, 2019 Rise Set
Actual Time 7:45 AM CDT 6:12 PM CDT
Civil Twilight 7:15 AM CDT 6:42 PM CDT
Nautical Twilight 6:40 AM CDT 7:16 PM CDT
Astronomical Twilight 6:06 AM CDT 7:51 PM CDT
Moon 5:33 AM CDT (10/26) 5:55 PM CDT (10/26)
Length of Visible Light 11h 27m
Length of Day
10h 26m
Waning Crescent, 3% of the Moon is Illuminated
Oct 26
Waning Crescent
Oct 27
New
Nov 4
First Quarter
Nov 12
Full
Nov 19
Last Quarter

Hourly Weather History & Observations

Time (CDT) Temp. Dew Point Humidity Pressure Visibility Wind Dir Wind Speed Gust Speed Precip Events Conditions
12:15 AM 44.6 °F 30.2 °F 57% 30.00 in 10.0 mi North - - N/A   Clear
12:16 AM 44.6 °F 30.2 °F 57% 30.00 in 10.0 mi North - - N/A   Clear
12:35 AM 44.6 °F 30.2 °F 57% 29.99 in 10.0 mi North - - N/A   Clear
12:55 AM 44.2 °F 30.0 °F 57% 29.98 in 10.0 mi North - - N/A   Clear
12:56 AM 44.2 °F 30.0 °F 57% 29.97 in 10.0 mi North - - N/A   Clear
1:35 AM 44.2 °F 29.1 °F 55% 29.96 in 10.0 mi North - - N/A   Clear
1:55 AM 43.7 °F 28.9 °F 56% 29.96 in 10.0 mi North - - N/A   Clear
2:15 AM 43.7 °F 28.8 °F 56% 29.95 in 10.0 mi North - - N/A   Clear
2:35 AM 43.7 °F 28.8 °F 56% 29.95 in 10.0 mi North - - N/A   Clear
2:55 AM 43.2 °F 28.4 °F 56% 29.95 in 10.0 mi North - - N/A   Clear
2:56 AM 43.2 °F 28.4 °F 56% 29.95 in 10.0 mi North - - N/A   Clear
3:15 AM 43.5 °F 28.4 °F 55% 29.94 in 10.0 mi North - - N/A   Clear
3:35 AM 43.3 °F 28.0 °F 55% 29.93 in 10.0 mi North - - N/A   Clear
3:55 AM 42.8 °F 27.9 °F 56% 29.93 in 10.0 mi North - - N/A   Clear
4:15 AM 41.5 °F 28.0 °F 59% 29.91 in 10.0 mi North - - N/A   Clear
4:35 AM 41.4 °F 27.9 °F 59% 29.91 in 10.0 mi North - - N/A   Clear
4:55 AM 41.0 °F 28.0 °F 60% 29.91 in 10.0 mi North - - N/A   Clear
4:56 AM 41.2 °F 28.0 °F 60% 29.91 in 10.0 mi North - - N/A   Clear
5:15 AM 41.2 °F 27.9 °F 59% 29.90 in 10.0 mi North - - N/A   Clear
5:35 AM 41.4 °F 27.7 °F 58% 29.89 in 10.0 mi North - - N/A   Clear
5:36 AM 41.4 °F 27.9 °F 59% 29.89 in 10.0 mi North - - N/A   Clear
5:55 AM 41.2 °F 27.7 °F 59% 29.89 in 10.0 mi North - - N/A   Clear
6:15 AM 41.0 °F 28.0 °F 60% 29.89 in 10.0 mi North - - N/A   Clear
6:35 AM 41.0 °F 27.9 °F 60% 29.88 in 10.0 mi North - - N/A   Clear
6:36 AM 41.0 °F 27.9 °F 60% 29.88 in 10.0 mi North - - N/A   Clear
6:55 AM 40.3 °F 28.2 °F 62% 29.87 in 10.0 mi North - - N/A   Clear
7:15 AM 39.7 °F 28.2 °F 63% 29.87 in 10.0 mi North - - N/A   Clear
7:35 AM 39.4 °F 28.4 °F 65% 29.86 in 10.0 mi North - - N/A   Clear
7:55 AM 39.4 °F 28.4 °F 65% 29.85 in 10.0 mi North - - N/A   Clear
8:15 AM 39.6 °F 28.4 °F 64% 29.85 in 10.0 mi North - - N/A   Clear
8:35 AM 40.1 °F 28.8 °F 64% 29.85 in 10.0 mi North - - N/A   Clear
8:55 AM 41.4 °F 28.6 °F 60% 29.85 in 10.0 mi North - - N/A   Clear
9:15 AM 42.3 °F 28.6 °F 58% 29.85 in 10.0 mi North - - N/A   Clear
9:35 AM 43.3 °F 29.1 °F 57% 29.84 in 10.0 mi North - - N/A   Clear
9:55 AM 44.6 °F 28.8 °F 54% 29.83 in 10.0 mi North - - N/A   Clear
10:15 AM 45.7 °F 29.1 °F 52% 29.83 in 10.0 mi North - - N/A   Clear
10:35 AM 47.1 °F 28.8 °F 49% 29.82 in 10.0 mi North - - N/A   Clear
10:55 AM 48.2 °F 28.6 °F 47% 29.81 in 10.0 mi North - - N/A   Clear
11:15 AM 49.8 °F 30.0 °F 47% 29.81 in 10.0 mi North - - N/A   Clear
11:16 AM 49.8 °F 29.8 °F 46% 29.81 in 10.0 mi North - - N/A   Clear
11:35 AM 50.0 °F 28.9 °F 44% 29.81 in 10.0 mi North - - N/A   Clear
11:55 AM 50.5 °F 28.9 °F 43% 29.80 in 10.0 mi North - - N/A   Clear
11:56 AM 50.5 °F 28.9 °F 43% 29.80 in 10.0 mi North - - N/A   Clear
12:15 PM 51.4 °F 28.9 °F 42% 29.80 in 10.0 mi North - - N/A   Clear
12:35 PM 52.3 °F 28.4 °F 40% 29.79 in 10.0 mi North - - N/A   Clear
12:36 PM 52.3 °F 28.2 °F 39% 29.79 in 10.0 mi North - - N/A   Clear
12:55 PM 52.7 °F 29.1 °F 40% 29.78 in 10.0 mi North - - N/A   Clear
1:15 PM 53.2 °F 29.3 °F 40% 29.78 in 10.0 mi North - - N/A   Clear
1:55 PM 54.7 °F 28.4 °F 36% 29.76 in 10.0 mi North - - N/A   Clear
2:15 PM 54.9 °F 28.4 °F 36% 29.74 in 10.0 mi North - - N/A   Clear
2:35 PM 55.4 °F 28.0 °F 35% 29.74 in 10.0 mi North - - N/A   Clear
2:36 PM 55.4 °F 28.2 °F 35% 29.74 in 10.0 mi North - - N/A   Clear
2:55 PM 55.4 °F 27.1 °F 34% 29.73 in 10.0 mi North - - N/A   Clear
3:15 PM 55.8 °F 27.5 °F 34% 29.72 in 10.0 mi North - - N/A   Clear
3:16 PM 55.8 °F 27.3 °F 34% 29.72 in 10.0 mi North - - N/A   Clear
3:35 PM 55.6 °F 27.0 °F 33% 29.71 in 10.0 mi North - - N/A   Clear
3:55 PM 55.6 °F 26.6 °F 33% 29.70 in 10.0 mi North - - N/A   Clear
4:15 PM 55.4 °F 27.3 °F 34% 29.69 in 10.0 mi North - - N/A   Clear
4:35 PM 55.0 °F 27.5 °F 35% 29.70 in 10.0 mi North - - N/A   Clear
4:55 PM 54.7 °F 27.9 °F 36% 29.70 in 10.0 mi North - - N/A   Clear
4:56 PM 54.7 °F 28.0 °F 36% 29.70 in 10.0 mi North - - N/A   Clear
5:15 PM 53.2 °F 30.0 °F 41% 29.70 in 10.0 mi North - - N/A   Clear
5:16 PM 53.2 °F 30.2 °F 41% 29.70 in 10.0 mi North - - N/A   Clear
5:35 PM 51.8 °F 29.7 °F 43% 29.71 in 10.0 mi North - - N/A   Clear
5:55 PM 51.4 °F 28.8 °F 42% 29.70 in 10.0 mi North - - N/A   Clear
5:56 PM 51.3 °F 28.8 °F 42% 29.70 in 10.0 mi North - - N/A   Clear
6:15 PM 49.1 °F 29.3 °F 46% 29.70 in 10.0 mi North - - N/A   Clear
6:35 PM 48.0 °F 28.8 °F 47% 29.70 in 10.0 mi North - - N/A   Clear
6:36 PM 48.0 °F 28.6 °F 47% 29.70 in 10.0 mi North - - N/A   Clear
6:55 PM 47.7 °F 28.4 °F 47% 29.71 in 10.0 mi North - - N/A   Clear
7:15 PM 47.1 °F 27.5 °F 47% 29.71 in 10.0 mi North - - N/A   Clear
7:16 PM 46.9 °F 27.5 °F 47% 29.71 in 10.0 mi North - - N/A   Clear
7:35 PM 46.9 °F 27.1 °F 46% 29.72 in 10.0 mi North - - N/A   Clear
7:55 PM 46.0 °F 27.1 °F 48% 29.72 in 10.0 mi North - - N/A   Clear
8:15 PM 45.7 °F 26.1 °F 46% 29.72 in 10.0 mi North - - N/A   Clear
8:35 PM 45.7 °F 24.4 °F 43% 29.72 in 10.0 mi North - - N/A   Clear
8:36 PM 45.7 °F 24.4 °F 43% 29.71 in 10.0 mi North - - N/A   Clear
8:55 PM 43.7 °F 25.0 °F 48% 29.72 in 10.0 mi North - - N/A   Clear
9:15 PM 42.8 °F 25.2 °F 50% 29.71 in 10.0 mi North - - N/A   Clear
9:35 PM 42.8 °F 25.0 °F 49% 29.70 in 10.0 mi North - - N/A   Clear
9:36 PM 42.8 °F 25.0 °F 49% 29.70 in 10.0 mi North - - N/A   Clear
9:55 PM 42.8 °F 25.2 °F 50% 29.70 in 10.0 mi North - - N/A   Clear
10:15 PM 41.5 °F 25.7 °F 53% 29.70 in 10.0 mi North - - N/A   Clear
10:16 PM 41.4 °F 25.7 °F 54% 29.70 in 10.0 mi North - - N/A   Clear
10:35 PM 41.0 °F 25.7 °F 55% 29.70 in 10.0 mi North - - N/A   Clear
10:55 PM 40.1 °F 25.9 °F 57% 29.70 in 10.0 mi North - - N/A   Clear
11:15 PM 39.0 °F 26.4 °F 61% 29.70 in 10.0 mi North - - N/A   Clear
11:35 PM 37.9 °F 27.0 °F 65% 29.70 in 10.0 mi North - - N/A   Clear
11:55 PM 36.9 °F 27.3 °F 68% 29.71 in 10.0 mi North - - N/A   Clear